ABS-2A (MONGOLSAT-1)

Last updated on Tue Sep 16 2025 00:02:48 GMT+0000 (Coordinated Universal Time)

1 41588U 16038A 25258.44628140 -.00000102 00000+0 00000+0 0 9997 2 41588 0.0069 145.0875 0001137 355.5827 89.3647 1.00278912 33957
UTC large
Height (km)
Speed (km/s)
/
Latitude / Longitude
Inclination (degrees)
Orbital Period (minutes)
Azimuth
Elevation
Range (km)
Doppler Factor

Next 0 passes for location: London (51.5072 / 0.1276)

Sorry there are no passes over London.